Regional Weather Roundup
Issued by NWS Mt. Holly, NJ

Home | Current Version | Previous Version | Text Only | Print | Product List | Glossary On
Versions: 1 2 3 4 5 6 7 8 9 10 11 12 13 14 15 16 17 18 19 20 21 22 23 24 25 26 27 28 29 30 31 32 33 34 35 36 37 38 39 40 41 42 43 44 45 46 47 48 49 50
000
ASUS41 KPHI 181712
RWRPHI

REGIONAL WEATHER ROUNDUP
NATIONAL WEATHER SERVICE MOUNT HOLLY NJ
100 PM EDT FRI AUG 18 2017

NOTE:  "FAIR" INDICATES FEW OR NO CLOUDS BELOW 12,000 FEET WITH NO
SIGNIFICANT WEATHER AND/OR OBSTRUCTIONS TO VISIBILITY.

 * = STATION DOES NOT REPORT PRECIPITATION (E.G. RAIN, SNOW, ETC.)
        OR FOG.

NJZ015>026-181800-
SOUTHERN NEW JERSEY

CITY           SKY/WX    TMP DP  RH WIND       PRES   REMARKS
POMONA         CLOUDY    85  78  80 S10       29.86F HX  96
WILDWOOD*      MOSUNNY   87  79  76 S14       29.86F HX 101
MILLVILLE      CLOUDY    87  80  79 VRB7      29.85F HX 103
WRIGHTSTOWN    LGT RAIN  79  77  94 S6        29.82F
MOUNT HOLLY    CLOUDY    80  79  96 CALM      29.84F
TRENTON        CLOUDY    80  77  90 S8        29.85F FOG

$$
NJZ001>014-181800-
NORTHERN NEW JERSEY

CITY           SKY/WX    TMP DP  RH WIND       PRES   REMARKS
SUSSEX         CLOUDY    80  74  81 SW7       29.84F
ANDOVER*         N/A     78  73  84 VRB5      29.86F
MORRISTOWN     CLOUDY    79  75  89 S8        29.86F
NEWARK         CLOUDY    80  76  87 S12       29.85S
TETERBORO      CLOUDY    81  76  84 S7        29.83F
CALDWELL       CLOUDY    78  77  96 CALM      29.85F
SOMERVILLE     CLOUDY    80  76  87 S5        29.83F
ALLAIRE*       CLOUDY    80  77  90 SW10      29.87F
TOMS RIVER*    CLOUDY    80  77  90 S7        29.87F

$$
PAZ043-044-047-054-055-060>062-066>071-181800-
EASTERN PENNSYLVANIA

CITY           SKY/WX    TMP DP  RH WIND       PRES   REMARKS
PHILADELPHIA   CLOUDY    81  76  84 SW7       29.85F
NORTH PHILA    CLOUDY    82  76  81 VRB5      29.86F
BLUE BELL*     CLOUDY    79  75  89 S5        29.86F
DOYLESTOWN     CLOUDY    79  76  90 VRB3      29.85F
QUAKERTOWN*    CLOUDY    81  75  83 SW10      29.86F
PERKASIE*      CLOUDY    81  77  89 S5        29.87F
POTTSTOWN      MOSUNNY   83  76  79 S8        29.86F HX  91
LANCASTER      MOSUNNY   87  77  72 S9        29.82F HX  99
COATESVILLE    PTSUNNY   81  77  89 VRB6      29.87F
READING        PTSUNNY   87  77  72 SW8       29.81F HX  99
ALLENTOWN      CLOUDY    83  73  72 S10       29.84F
MOUNT POCONO   CLOUDY    72  72 100 SW10      29.91F
HAZLETON       LGT RAIN  79  73  83 S6        29.92S
LEHIGHTON      CLOUDY    79  73  83 CALM      29.85F
WILKES BARRE   LGT RAIN  80  73  79 S7        29.84S

$$
DEZALL-MDZ008-012-015-019-020-181800-
DELAWARE AND EASTERN MARYLAND

CITY           SKY/WX    TMP DP  RH WIND       PRES   REMARKS
WILMINGTON     CLOUDY    82  77  84 SW8       29.85F HX  90
DOVER          PTSUNNY   88  77  70 SW13      29.82F HX 100
GEORGETOWN     PTSUNNY   89  78  70 SW10      29.86F HX 103
EASTON         MOSUNNY   88  77  70 SW7       29.89F HX 100
ABERDEEN       CLOUDY    82  77  82 S7        29.85F HX  90
PATUXENT       PTSUNNY   86  80  82 S9        29.85F HX 101
OCEAN CITY     MOSUNNY   83  79  88 S10G18    29.88F HX  94
WALLOPS ISLAND MOSUNNY   86  81  85 S14G21    29.88F HX 102
CAMBRIDGE      PTSUNNY   84  79  84 S9G16     29.86F HX  96
SALISBURY      PTSUNNY   88  80  77 S13       29.86F HX 104

$$
PAZ001-021-NYZ056-072-MDZ011-DCZ001-181800-
OTHER NEARBY LOCATIONS

CITY           SKY/WX    TMP DP  RH WIND       PRES   REMARKS
HARRISBURG     CLOUDY    88  76  67 SW6       29.79F HX  99
STATE COLLEGE  LGT RAIN  73  73 100 SW6       29.86S
WILLIAMSPORT   PTSUNNY   78  76  93 W8        29.80F
BINGHAMTON     LGT RAIN  72  71  97 SW6       29.85F FOG
NEW YORK CITY  CLOUDY    79  77  94 MISG      29.88F FOG
BALTIMORE      MOSUNNY   87  78  74 VRB6      29.83F HX 100
WASHINGTON DC  MOSUNNY   87  79  76 S10       29.84F HX 101

$$



USA.gov is the U.S. government's official web portal to all federal, state and local government web resources and services.